Theta_e
307 307 307 308 308 308 309 309 309 310 311 311 312 312 314 315 314 315 317 324 322 320 315 313 314 318 315 315 312 309 309 309 313 314 315 314 317 321 326 336 337 336 334 334 338
306 307 307 307 308 308 308 309 309 310 311 311 312 313 315 314 314 320 320 321 324 317 313 313 316 316 315 313 311 308 307 312 312 314 315 315 317 318 322 329 337 341 337 338 342
306 306 307 307 307 308 308 309 310 310 311 312 312 315 315 315 321 323 318 321 318 313 313 314 317 317 314 312 313 311 311 311 313 312 312 315 315 317 320 322 331 343 341 340 341
306 306 306 307 307 308 308 309 310 310 311 313 313 315 315 320 321 321 317 315 314 314 315 315 314 315 314 314 313 313 311 312 314 316 316 316 315 316 318 320 322 339 341 338 342
305 306 306 307 307 308 308 309 310 311 312 314 314 315 316 319 320 324 317 315 314 314 314 315 316 314 315 313 314 313 317 315 314 313 314 329 330 320 344 344 342 334 339 340 339
305 306 306 307 307 308 309 310 312 314 314 314 314 314 323 325 323 321 316 317 317 318 316 315 318 313 315 315 315 316 315 314 315 313 324 339 341 336 344 344 343 342 338 339 340
305 306 306 307 308 308 309 313 315 317 317 314 315 315 321 317 321 319 318 320 320 319 319 319 318 317 316 316 315 316 317 315 313 315 318 340 342 341 337 337 337 335 341 342 343
306 306 307 307 308 309 311 317 318 318 315 313 315 317 317 325 325 323 319 320 320 320 320 320 319 315 316 315 314 316 314 315 318 323 328 340 343 337 334 339 340 339 336 339 344
306 307 307 308 308 310 317 318 319 316 313 314 324 322 326 326 319 319 320 320 320 320 320 319 317 314 314 315 314 313 316 316 322 329 331 335 335 333 330 338 342 341 341 348 351
306 307 308 309 308 314 317 319 319 319 321 323 322 321 323 325 321 322 321 320 318 318 316 317 312 315 311 313 317 318 318 319 324 331 332 331 334 333 333 335 339 343 344 344 350
307 308 309 309 309 316 317 316 311 313 315 319 322 322 323 323 322 321 321 320 319 316 317 316 316 317 318 315 317 318 321 323 331 332 334 336 336 334 334 334 341 345 348 348 344
307 308 309 309 310 317 317 313 313 313 313 315 314 316 318 320 321 321 321 319 319 318 318 315 318 318 318 319 318 321 319 320 331 332 333 334 334 333 337 339 339 344 345 345 341
307 308 310 310 316 314 316 315 315 315 314 316 318 319 319 319 321 321 318 317 318 319 318 317 318 320 321 321 321 321 320 318 321 333 332 331 331 334 336 341 344 339 340 343 342
307 308 310 310 310 309 315 315 316 316 323 325 323 319 317 319 320 321 318 320 320 320 319 317 318 322 321 322 320 320 320 321 328 320 322 326 330 332 337 344 346 346 344 343 340
307 308 310 311 310 308 314 313 317 318 328 327 317 318 317 319 320 321 320 320 320 320 320 320 321 321 321 321 321 320 322 325 321 320 329 331 332 332 337 345 344 342 342 339 337
307 308 310 311 310 311 312 316 317 324 327 320 318 317 319 319 320 320 320 319 319 320 320 319 319 320 321 322 322 322 323 321 324 323 331 329 332 335 338 344 339 342 336 336 334
307 310 310 311 310 310 315 315 316 330 325 321 319 317 317 318 318 320 320 319 322 325 326 325 325 320 323 322 319 320 321 324 325 328 330 330 337 335 337 337 339 340 336 332 330
308 311 312 311 311 311 315 318 327 326 328 323 319 317 318 318 320 320 321 321 322 323 324 326 323 324 323 322 323 324 323 326 330 325 325 332 340 336 335 332 328 332 332 330 328
310 311 312 312 317 316 315 321 326 327 325 326 319 318 318 320 324 325 324 324 324 322 327 327 329 327 325 322 322 324 323 322 322 323 330 332 334 332 333 330 326 328 328 327 324
310 310 316 315 317 317 315 319 324 325 325 325 325 323 318 321 323 325 325 324 325 324 323 327 328 328 325 324 323 323 321 323 322 327 329 326 337 335 336 332 327 326 324 323 321
311 314 319 318 317 312 313 315 321 323 324 325 325 326 325 322 326 326 325 324 325 326 320 321 320 322 323 325 324 320 320 320 319 321 324 326 336 330 331 327 324 321 320 319 319
313 318 318 317 313 312 315 317 320 323 322 323 324 325 327 326 325 324 325 324 321 321 321 319 320 323 326 325 322 323 323 317 320 321 320 326 334 325 324 323 322 320 319 319 318
312 315 318 316 315 313 317 323 325 321 322 322 323 323 324 326 324 325 324 321 320 320 320 321 319 316 324 322 322 322 321 321 316 316 320 333 334 324 324 323 321 320 318 316 315
309 319 316 312 312 316 318 321 323 320 322 322 322 321 321 323 322 324 322 322 321 323 329 322 321 318 325 324 323 324 323 320 317 319 329 331 327 324 323 321 318 316 315 314 313
308 314 317 319 317 314 315 317 322 321 319 319 323 325 322 327 328 324 322 323 325 326 324 322 326 326 325 324 325 325 326 326 325 321 329 327 325 323 323 318 315 313 312 312 312
309 315 314 316 320 315 313 316 322 322 322 322 327 327 326 328 325 326 326 327 326 323 323 320 324 325 325 324 325 327 327 327 326 325 325 322 319 316 321 317 313 311 311 312 311
309 312 314 316 319 318 316 318 321 320 325 324 324 324 325 325 322 322 321 319 321 322 322 323 322 324 325 324 325 326 326 326 323 321 323 322 318 315 316 314 313 311 311 312 312
Wind_Speed
18 19 20 21 22 23 25 25 26 28 24 25 24 20 20 21 20 8 5 3 2 4 6 4 3 9 1 1 4 3 4 2 4 4 7 9 6 3 2 3 2 6 7 7 22
18 19 21 22 23 25 26 26 26 28 24 25 21 18 19 19 14 7 4 7 5 5 3 5 3 6 3 1 2 4 4 6 5 3 6 7 1 4 1 1 3 2 4 19 28
19 20 21 23 24 26 27 27 26 27 24 25 17 16 18 14 3 4 4 2 4 2 0 2 3 2 2 1 2 2 6 5 8 8 6 5 11 4 6 2 3 6 14 13 17
21 23 24 25 26 27 28 28 25 24 22 22 14 14 17 3 1 3 3 2 3 0 2 2 4 3 3 3 1 3 8 5 8 1 2 4 9 9 12 9 11 10 20 14 14
20 23 25 27 27 28 29 28 26 21 19 19 11 13 6 2 7 3 4 3 3 1 1 1 4 2 2 4 5 4 4 2 7 8 7 13 12 7 18 16 23 4 8 10 9
21 23 26 28 29 29 30 29 24 19 21 15 8 10 2 2 2 3 5 4 5 3 2 4 2 5 2 3 1 7 6 7 7 7 5 24 15 5 11 15 26 23 17 18 14
23 25 27 29 31 31 32 26 28 24 19 6 4 5 1 8 1 4 7 4 6 5 2 5 4 1 1 6 3 3 7 9 10 5 4 15 17 13 7 6 20 18 18 19 11
25 27 29 31 32 32 29 30 22 8 1 0 3 1 5 2 8 9 11 11 11 12 13 16 11 1 1 4 7 5 4 5 4 8 7 10 1 4 7 14 18 19 15 14 17
26 28 30 32 32 30 26 20 6 4 5 2 1 1 6 7 4 8 14 10 12 12 11 11 2 1 5 3 5 6 3 1 5 11 4 6 3 8 11 10 18 16 16 15 15
25 29 31 33 31 24 26 4 10 5 5 2 1 2 4 5 4 3 5 14 5 3 6 4 4 2 3 4 2 4 5 4 5 7 15 11 6 6 9 8 13 17 17 12 15
24 27 31 31 28 18 23 4 7 5 5 3 4 4 6 11 7 3 2 2 2 7 3 6 5 4 7 6 4 3 1 6 3 3 8 4 4 8 8 8 13 17 19 16 12
25 29 32 30 20 12 22 7 2 8 8 5 6 7 13 6 4 4 4 2 3 1 1 6 4 6 1 4 5 5 5 4 2 2 7 3 11 6 12 3 3 16 15 13 12
25 29 33 33 10 12 7 9 20 12 2 8 5 4 5 9 4 5 7 3 2 2 1 5 5 2 2 1 4 2 3 6 6 0 6 6 7 7 5 8 11 10 15 13 10
24 27 29 33 5 19 6 18 20 4 3 4 3 5 3 4 3 5 7 2 3 2 5 3 4 2 2 3 3 4 1 3 10 4 3 1 3 6 7 11 12 14 14 10 10
25 26 27 25 14 9 8 22 15 3 2 2 3 3 2 5 2 1 2 3 2 3 4 6 3 2 5 3 3 7 4 4 3 5 5 8 5 1 4 6 3 4 8 5 7
25 25 28 16 20 8 17 20 2 4 3 2 5 5 4 2 2 2 3 3 1 0 1 5 5 2 1 3 4 3 5 7 4 3 4 5 4 3 2 4 2 2 7 5 6
25 26 27 20 5 12 17 4 4 2 3 5 4 4 2 2 2 3 2 5 3 4 5 6 5 5 1 4 7 10 7 4 5 5 2 2 5 3 2 3 4 4 6 3 3
27 28 18 20 18 15 7 4 1 3 5 2 4 4 4 4 0 2 3 3 5 3 3 3 6 6 7 2 3 4 4 5 2 1 3 5 3 2 2 5 6 6 5 2 3
28 20 12 4 1 3 4 3 5 2 5 4 4 4 2 2 4 5 4 4 5 4 4 3 3 5 6 2 3 1 5 2 6 4 3 1 2 3 4 7 6 5 3 2 0
23 13 10 1 4 4 4 4 4 4 5 4 3 3 5 4 4 5 4 3 4 7 1 1 1 2 5 5 8 7 3 5 4 2 1 4 3 3 2 5 4 3 4 2 5
9 4 5 4 5 5 2 5 5 7 2 2 2 1 1 4 4 3 2 2 5 4 8 2 3 6 4 5 1 7 4 6 5 4 4 1 3 5 3 5 6 6 6 7 6
4 2 4 5 3 1 2 4 6 5 4 3 2 3 3 4 5 4 4 3 6 1 4 4 4 1 2 2 4 1 3 4 5 2 3 4 2 5 7 7 6 6 5 4 3
1 3 3 3 1 2 5 5 4 4 4 4 4 5 5 4 6 4 3 5 7 5 3 1 4 3 7 6 5 5 3 4 4 3 1 5 3 6 6 8 6 6 6 5 6
1 2 3 3 1 2 3 4 5 5 2 3 3 6 7 7 7 5 3 5 5 4 7 7 3 5 5 5 3 5 7 4 5 4 3 2 4 5 7 7 7 7 6 6 6
1 3 2 2 4 4 2 3 3 4 4 6 5 4 5 5 5 4 3 3 5 8 5 5 3 2 2 4 3 8 11 12 7 2 4 3 4 4 2 3 5 6 8 8 8
2 0 3 3 4 4 3 3 2 5 5 3 6 4 6 5 6 7 5 2 2 7 4 4 1 2 3 9 9 7 9 8 10 10 9 8 6 4 1 4 4 6 7 8 8
2 2 3 3 4 3 3 3 1 3 3 1 9 7 12 3 6 5 4 5 5 4 2 4 3 3 1 2 4 6 4 7 4 5 4 2 2 2 3 6 5 7 7 7 9
Wind_Direction
341 341 341 342 341 339 335 335 336 336 336 332 329 339 332 321 323 300 248 224 266 314 319 333 50 2 94 155 139 114 63 267 248 198 258 298 19 304 310 161 204 183 163 212 149
339 342 342 342 340 338 333 333 334 336 337 330 332 341 330 323 323 261 281 238 286 295 352 47 2 351 14 280 172 103 119 239 212 230 278 291 246 288 293 237 264 151 60 117 142
344 337 341 343 337 336 331 330 332 336 335 330 338 341 328 327 315 266 325 242 265 279 61 1 13 53 25 4 298 169 208 216 268 245 256 274 321 279 347 70 270 188 161 148 149
345 341 344 339 335 334 328 326 330 334 331 330 340 336 325 339 116 271 306 169 188 238 14 48 19 47 352 329 222 283 252 189 267 180 230 278 318 329 30 323 288 191 169 169 157
344 340 342 335 333 331 327 326 325 333 328 327 340 331 334 321 253 263 238 178 184 167 298 60 43 88 333 314 325 198 283 157 257 269 17 38 13 77 23 9 35 78 167 165 64
342 341 341 333 331 332 326 324 326 332 318 316 338 324 342 302 281 253 221 208 209 191 165 163 210 197 245 270 130 304 277 257 298 38 95 64 24 72 353 356 47 45 42 68 63
342 341 339 335 333 332 326 325 326 316 305 300 322 333 290 237 221 245 221 254 283 246 243 237 192 65 252 313 210 257 310 339 15 22 143 71 31 38 330 320 55 36 50 69 67
343 341 339 335 335 333 327 331 326 328 266 347 293 49 247 263 288 234 236 270 279 281 264 285 269 162 173 293 4 356 52 0 336 350 18 94 272 300 324 54 56 53 49 52 45
341 341 339 334 337 334 335 335 16 45 66 39 119 92 280 309 242 259 238 244 284 294 257 264 43 58 23 35 9 356 261 33 355 16 122 82 194 323 338 15 77 66 51 40 38
340 340 338 334 340 338 340 80 53 58 50 39 317 338 290 301 268 227 231 239 246 345 6 46 53 53 55 66 343 327 356 38 78 352 61 65 62 333 338 7 42 64 53 44 48
339 342 335 336 345 338 6 36 15 341 22 244 282 280 282 304 297 248 183 129 64 56 360 340 27 273 255 189 214 233 341 70 4 215 72 61 47 5 346 24 46 52 56 37 29
340 338 340 342 344 358 40 69 54 291 308 263 243 260 271 268 306 324 138 112 82 261 217 7 262 253 172 262 220 134 104 104 347 61 85 166 51 2 21 20 339 71 51 26 7
340 341 344 342 355 5 22 36 354 7 246 293 219 203 223 147 246 273 141 163 219 324 180 176 254 65 165 34 71 296 145 152 165 228 92 122 42 19 335 12 40 48 66 22 348
339 338 343 345 12 340 331 343 346 9 31 267 250 265 158 150 277 240 183 147 5 330 5 222 272 159 78 61 118 311 347 18 148 121 137 319 155 25 17 38 37 64 66 307 310
332 335 341 343 317 312 324 332 340 105 62 189 201 165 118 143 300 281 130 67 221 275 81 262 1 294 39 296 184 234 70 56 358 94 101 346 77 308 33 56 9 124 123 215 262
327 331 333 329 310 297 329 327 62 46 236 230 152 166 112 247 292 12 44 32 92 16 295 255 287 238 189 40 41 312 84 38 61 81 53 319 104 298 223 181 238 229 111 196 235
323 322 318 304 277 314 326 0 46 143 357 180 176 146 160 213 223 140 69 12 72 60 1 338 328 304 88 30 8 48 57 358 4 19 224 272 56 251 347 239 243 188 156 194 72
323 321 311 293 280 294 346 50 208 263 259 266 125 108 175 182 187 125 89 26 15 79 72 35 9 356 331 94 148 38 103 142 219 297 257 4 90 256 165 317 121 120 129 132 226
327 324 315 335 61 109 68 76 223 279 288 350 58 111 252 232 138 92 75 18 9 1 112 72 357 322 32 21 98 113 43 199 103 17 55 346 22 342 350 37 69 90 103 155 188
334 322 303 220 149 74 74 239 253 245 317 41 117 143 211 178 108 78 37 337 318 25 121 139 108 336 301 15 22 97 148 33 15 70 7 342 70 277 351 74 113 109 148 93 32
330 359 346 162 168 49 172 243 281 262 352 79 121 187 143 136 86 84 10 9 354 358 57 58 71 310 30 17 321 16 28 56 107 111 151 132 308 323 1 40 64 53 83 82 58
355 335 21 180 34 48 233 217 292 302 359 2 119 75 105 100 59 84 93 15 327 320 51 349 130 128 210 305 329 111 83 98 113 224 84 125 283 345 35 62 92 70 65 58 39
348 262 16 202 195 281 287 281 259 322 344 6 29 48 45 87 98 77 81 347 21 61 92 102 17 26 354 354 354 26 10 118 113 78 53 129 223 21 46 57 33 55 27 5 357
30 348 319 45 88 178 279 291 318 329 47 30 50 63 57 44 23 126 112 39 15 68 64 87 71 132 165 223 267 347 360 20 103 96 141 39 87 4 22 35 14 0 334 303 292
113 245 209 271 277 221 329 311 308 329 11 27 14 36 131 85 57 78 90 83 18 359 42 85 88 16 336 258 76 54 35 35 58 112 103 126 91 357 27 26 355 341 346 338 325
194 241 351 286 303 156 202 258 321 337 26 355 101 3 115 137 175 172 133 108 111 15 58 12 99 65 64 59 67 66 30 39 45 66 81 91 49 336 344 330 336 329 326 327 318
248 291 114 271 319 158 222 245 46 354 29 55 134 85 76 91 112 121 108 106 130 129 87 64 86 51 291 356 158 30 27 79 64 39 103 99 189 308 267 270 282 319 323 322 328